CZ-2C DEB

基本信息
目录编号:
38863
目录名称:
CZ-2C DEB
国际标识:
2012-056D
轨道中心:
EARTH
物体状态:
在轨
发射日期:
2012-10-14 UTC
轨道信息
数据来源: 国际轨道数据
星历时间: 2026-09-04T12:28:07+0800
半长轴: 6865.922km
偏心率: 0.0009384
轨道倾角: 97.539°
近地点辐角: 135.408°
升交点赤经: 317.488°
平近点角: 224.791°
近地点: 481.342km
远地点: 494.228km
周期: 94.364分钟
每日圈数: 15.259998
详细信息
发射场:
TSC
轨道高度:
LEO
数据来源:
AOE Integration Group
参考系:
TEME
时间系统:
UTC
历元类型:
SGP4
2D轨道图
3D轨道图
轨道高度分析图
轨道倾角分析图
轨道综合分析图
查看轨道综合分析图